[[{"header":{"parameterUnit":"m.s-1","parameterCategory":1,"la1":30.2991,"la2":30.254,"lo1":-89.0895,"lo2":-89.0444,"dy":0.0017,"dx":0.0017,"nx":28,"ny":28,"refTime":"2024-02-29T09:00:00:Z","depth":0,"parameterNumber":2,"parameterNumberName":"U-component_of_WINDS"},"data":[0,0,0,0,0,0,0,0,0,0,0,0,0,0,0,0,0,0,0,0,0,0,0,0,0,0,0,0,0,0,0,0,0,0,0,0,0,0,0,0,0,0,0,0,0,0,0,0,0,0,0,0,0,0,0,0,0,0,0.9987,0.9987,0,1.0058,1.0059,1.006,1.0077,1.0076,1.0076,1.0075,1.0152,1.0155,1.0157,0,0,0,0,0,0,0,0,0,0,0,0,0,0.9869,0.9871,0.9987,0.9988,0.9988,1.0058,1.0059,1.006,1.0077,1.0076,1.0076,1.0075,1.0151,1.0154,1.0157,0,0,0,0,0,0,0,0,0,0,0,0,0,0.9928,0.9872,0.9986,1.0005,1.0008,1.0058,1.0059,1.006,1.0077,1.0076,1.0076,1.0075,1.015,1.0154,1.0158,1.0196,0,0,1.0169,1.0171,0,0,0,0,0,0,0,0,0.9925,0.9933,1.0002,1.0004,1.0007,1.0058,1.0046,1.0106,1.0077,1.0051,1.0075,1.0075,1.0122,1.0128,1.0143,1.0199,1.0203,1.017,1.0172,1.0173,1.0175,0,0,0,0,0,0,0,0.9921,0.993,1.0015,1.0003,1.0006,1.0012,1.0019,1.0057,1.009,1.0053,1.0054,1.0063,1.0123,1.0139,1.0145,1.0204,1.0169,1.0173,1.0175,1.0177,1.0298,1.0298,0,0,0,0,0,0,0.9913,0.9926,1.0013,1.0017,0.9963,1.0014,1.0023,1.0042,1.0089,1.0096,1.0063,1.0063,1.0133,1.014,1.0148,1.0196,1.0173,1.0177,1.0179,1.0297,1.0298,1.0299,0,0,0,0,0,0,0.991,0.992,1.001,0.9972,0.9984,1.0017,1.0039,1.0044,1.006,1.0097,1.0103,1.0073,1.0133,1.0142,1.0184,1.0199,1.0179,1.0182,1.0295,1.0297,1.0298,1.0293,0,0,0,0,0,0,0.9907,0.9919,0.9933,0.9972,0.9986,1.0044,1.004,1.0046,1.0066,1.0067,1.0108,1.0114,1.0133,1.0178,1.0188,1.0204,1.0185,1.0294,1.0296,1.0298,1.0292,1.0294,1.0296,0,0,0,0,0,0.9903,0.9929,0.9933,0.9944,1.0003,1.0044,1.0052,1.0072,1.0067,1.0082,1.0106,1.0113,1.0196,1.0182,1.0193,1.0211,1.0293,1.0296,1.0298,1.0291,1.0294,1.0296,0,0,0,0,0,0,0.9891,0.9934,0.994,0.9979,1.0008,1.0047,1.0066,1.0074,1.0105,1.0105,1.013,1.0139,1.0179,1.0199,1.0183,1.0251,1.0245,1.0249,1.0236,1.0239,1.0241,1.0236,1.0188,0,0,0,0,0,0.9893,0.9922,0.9958,0.999,1.0004,1.0033,1.0051,1.0064,1.0095,1.0108,1.0135,1.0165,1.0199,1.022,1.0253,1.0296,1.0306,1.0313,1.0315,1.0317,1.032,1.0347,1.0351,1.0306,1.0306,1.0306,0,0,0.9898,0.9925,0.9941,0.9988,1.0012,1.0043,1.0043,1.0074,1.0098,1.0113,1.0154,1.0175,1.0211,1.0254,1.0274,1.0272,1.0335,1.032,1.032,1.0323,1.0349,1.0353,1.0357,1.0307,1.0307,1.0307,0,0,0.9922,0.9944,0.9974,0.9998,1.0033,1.0053,1.006,1.0098,1.0112,1.0154,1.0166,1.0195,1.0252,1.0278,1.0298,1.0334,1.0343,1.0344,1.0355,1.038,1.0383,1.0387,1.0401,1.0405,1.0348,1.0348,1.0348,0,0.9923,0.9968,0.9988,1.002,1.0041,1.0056,1.0087,1.0109,1.0154,1.0169,1.0166,1.0238,1.0264,1.0314,1.0323,1.0338,1.0349,1.0339,1.0381,1.0385,1.0388,1.0402,1.0407,1.0348,1.0348,1.0348,1.0348,0,0.9969,1.0,1.002,1.0062,1.0086,1.0117,1.0143,1.0165,1.0177,1.0197,1.024,1.0272,1.0311,1.0324,1.0336,1.0377,1.0374,1.0376,1.037,1.0392,1.0405,1.0411,1.0348,1.0348,1.0348,1.0348,0,0,0.9986,1.004,1.0047,1.0068,1.0109,1.0134,1.0167,1.0206,1.0224,1.0256,1.0285,1.0333,1.0335,1.0359,1.0374,1.0396,1.0424,1.0395,1.0397,1.04,1.0473,1.0472,1.0477,1.043,1.0431,1.0432,1.047,0,1.0016,1.0073,1.0094,1.0142,1.0172,1.0188,1.0217,1.0246,1.0267,1.0297,1.032,1.0354,1.0353,1.0368,1.039,1.0416,1.0439,1.0414,1.0459,1.0461,1.045,1.0484,1.0483,1.0517,1.0475,1.0476,1.0477,0,1.0058,1.0089,1.014,1.0179,1.0193,1.0218,1.0256,1.0284,1.0319,1.0332,1.0359,1.0373,1.041,1.0402,1.0455,1.0437,1.0457,1.0473,1.0475,1.048,1.047,1.0491,1.0528,1.0533,1.0485,1.0485,1.0484,0,1.0066,1.0121,1.0159,1.0176,1.0222,1.024,1.0261,1.0295,1.0317,1.0351,1.0366,1.0404,1.0425,1.0455,1.048,1.0471,1.0531,1.0524,1.0544,1.0544,1.0556,1.0555,1.0597,1.0568,1.0568,1.0568,1.0568,0,1.0097,1.0128,1.0164,1.0187,1.0223,1.0247,1.0283,1.0305,1.0335,1.0364,1.0381,1.0408,1.0439,1.0471,1.0491,1.0533,1.0542,1.0555,1.056,1.0554,1.0552,1.0568,1.0566,1.057,1.0569,1.0569,1.0569,0,1.0113,1.0138,1.0181,1.0221,1.0232,1.0257,1.0293,1.0317,1.0339,1.0376,1.0386,1.0421,1.046,1.0487,1.0538,1.0551,1.0596,1.0601,1.0584,1.0587,1.0605,1.0603,1.0659,1.0669,1.0633,1.0633,1.0633,0,1.0131,1.0155,1.0199,1.0219,1.0239,1.0272,1.0295,1.032,1.0344,1.0386,1.0406,1.0446,1.0479,1.0541,1.0572,1.0611,1.0617,1.0634,1.0623,1.0617,1.0619,1.0617,1.062,1.0636,1.0636,1.0636,1.0636,0,1.0161,1.0172,1.0204,1.0241,1.0267,1.0298,1.0329,1.0345,1.0376,1.0402,1.0442,1.0467,1.0519,1.0559,1.0602,1.0625,1.0637,1.064,1.0647,1.064,1.063,1.0637,1.0589,1.0638,1.0638,1.0638,1.0638,1.0638,1.0179,1.0202,1.0236,1.0271,1.0297,1.0326,1.0351,1.0376,1.0409,1.0452,1.0466,1.0507,1.0544,1.0602,1.0626,1.0661,1.066,1.0669,1.0672,1.0674,1.0674,1.0624,1.0668,1.0668,1.0668,1.0668,1.0668,0,1.021,1.0233,1.0266,1.0308,1.0336,1.0344,1.0379,1.0403,1.0438,1.0471,1.0504,1.055,1.059,1.0624,1.0666,1.0687,1.0693,1.0697,1.0696,1.0701,1.0672,1.0662,1.0691,1.0691,1.0691,1.0691,1.0691,1.0691,1.023,1.0269,1.0285,1.0338,1.0362,1.0402,1.0421,1.0449,1.0475,1.0526,1.0558,1.058,1.0614,1.0659,1.0696,1.0705,1.072,1.0723,1.0734,1.0706,1.0703,1.0701,1.0692,1.0726,1.0726,1.076,1.076,1.076]},{"header":{"parameterUnit":"m.s-1","parameterCategory":1,"la1":30.2991,"la2":30.254,"lo1":-89.0895,"lo2":-89.0444,"dy":0.0017,"dx":0.0017,"nx":28,"ny":28,"refTime":"2024-02-29T09:00:00:Z","depth":0,"parameterNumber":3,"parameterNumberName":"V-component_of_WINDS"},"data":[0,0,0,0,0,0,0,0,0,0,0,0,0,0,0,0,0,0,0,0,0,0,0,0,0,0,0,0,0,0,0,0,0,0,0,0,0,0,0,0,0,0,0,0,0,0,0,0,0,0,0,0,0,0,0,0,0,0,-1.3938,-1.3938,0,-1.3865,-1.3864,-1.3864,-1.3844,-1.3844,-1.3845,-1.3845,-1.3758,-1.3756,-1.3753,0,0,0,0,0,0,0,0,0,0,0,0,0,-1.405,-1.4048,-1.3939,-1.3938,-1.3937,-1.3865,-1.3864,-1.3863,-1.3844,-1.3844,-1.3845,-1.3845,-1.3759,-1.3756,-1.3753,0,0,0,0,0,0,0,0,0,0,0,0,0,-1.3991,-1.4047,-1.3939,-1.3919,-1.3916,-1.3866,-1.3864,-1.3863,-1.3843,-1.3844,-1.3845,-1.3846,-1.376,-1.3756,-1.3752,-1.3713,0,0,-1.374,-1.3738,0,0,0,0,0,0,0,0,-1.3995,-1.3987,-1.3922,-1.392,-1.3917,-1.3865,-1.3872,-1.3812,-1.3843,-1.3871,-1.3845,-1.3846,-1.3792,-1.3786,-1.377,-1.3709,-1.3705,-1.3739,-1.3737,-1.3735,-1.3734,0,0,0,0,0,0,0,-1.3999,-1.399,-1.3909,-1.3921,-1.3918,-1.3909,-1.3902,-1.386,-1.3828,-1.3868,-1.3867,-1.3859,-1.3791,-1.3774,-1.3768,-1.3704,-1.3739,-1.3736,-1.3733,-1.3732,-1.3604,-1.3603,0,0,0,0,0,0,-1.4008,-1.3994,-1.3911,-1.3907,-1.3959,-1.3907,-1.3898,-1.388,-1.3829,-1.3822,-1.3858,-1.3858,-1.3781,-1.3773,-1.3765,-1.3714,-1.3735,-1.3731,-1.3729,-1.3605,-1.3604,-1.3603,0,0,0,0,0,0,-1.401,-1.4001,-1.3914,-1.395,-1.3938,-1.3904,-1.3884,-1.3879,-1.3862,-1.3821,-1.3814,-1.3848,-1.3781,-1.377,-1.3726,-1.371,-1.3729,-1.3726,-1.3606,-1.3604,-1.3603,-1.3613,0,0,0,0,0,0,-1.4014,-1.4002,-1.3989,-1.395,-1.3937,-1.3881,-1.3883,-1.3877,-1.3856,-1.3855,-1.381,-1.3802,-1.3781,-1.3733,-1.3722,-1.3705,-1.3722,-1.3607,-1.3605,-1.3604,-1.3614,-1.3612,-1.361,0,0,0,0,0,-1.4018,-1.3993,-1.3989,-1.3979,-1.3921,-1.388,-1.3872,-1.3851,-1.3855,-1.384,-1.3814,-1.3804,-1.3714,-1.3728,-1.3716,-1.3698,-1.3608,-1.3606,-1.3604,-1.3614,-1.3612,-1.361,0,0,0,0,0,0,-1.4028,-1.3987,-1.3983,-1.3945,-1.3917,-1.3877,-1.3858,-1.385,-1.3816,-1.3816,-1.3788,-1.3777,-1.3735,-1.3712,-1.3728,-1.3656,-1.366,-1.3656,-1.3673,-1.367,-1.3669,-1.3674,-1.3719,0,0,0,0,0,-1.4026,-1.4,-1.3965,-1.3935,-1.3921,-1.3892,-1.3874,-1.386,-1.3828,-1.3815,-1.3785,-1.3751,-1.3714,-1.3691,-1.3656,-1.361,-1.3598,-1.3591,-1.359,-1.3589,-1.3584,-1.3556,-1.3552,-1.3596,-1.3596,-1.3596,0,0,-1.4022,-1.3996,-1.3981,-1.3936,-1.3913,-1.3883,-1.3882,-1.3851,-1.3827,-1.3808,-1.3766,-1.3743,-1.3702,-1.3657,-1.3635,-1.3636,-1.357,-1.3586,-1.3585,-1.3582,-1.3553,-1.3549,-1.3546,-1.3594,-1.3595,-1.3595,0,0,-1.3998,-1.3978,-1.395,-1.3927,-1.3892,-1.3873,-1.3866,-1.3828,-1.3813,-1.3771,-1.3755,-1.3724,-1.3664,-1.3635,-1.3612,-1.3577,-1.3565,-1.3566,-1.3556,-1.3529,-1.3525,-1.3522,-1.3507,-1.3502,-1.3562,-1.3562,-1.3562,0,-1.3995,-1.3954,-1.3936,-1.3905,-1.3885,-1.387,-1.384,-1.3817,-1.3771,-1.3755,-1.3758,-1.368,-1.3652,-1.3599,-1.3591,-1.3573,-1.3561,-1.357,-1.3528,-1.3525,-1.3521,-1.3507,-1.3501,-1.3562,-1.3562,-1.3562,-1.3562,0,-1.3951,-1.3922,-1.3903,-1.3863,-1.384,-1.381,-1.3783,-1.3762,-1.3749,-1.3729,-1.3683,-1.3649,-1.3606,-1.3592,-1.3579,-1.3536,-1.3538,-1.3535,-1.3539,-1.3518,-1.3503,-1.3498,-1.3562,-1.3562,-1.3562,-1.3562,0,0,-1.3931,-1.3883,-1.3876,-1.3857,-1.3817,-1.3792,-1.3759,-1.3721,-1.3701,-1.3669,-1.3639,-1.3587,-1.3584,-1.3559,-1.3541,-1.3518,-1.3489,-1.3517,-1.3516,-1.3511,-1.3436,-1.3438,-1.3432,-1.3482,-1.348,-1.348,-1.3439,0,-1.3901,-1.3847,-1.3829,-1.3782,-1.3753,-1.3738,-1.3709,-1.3679,-1.3659,-1.3628,-1.3603,-1.3566,-1.3566,-1.355,-1.3527,-1.3498,-1.3473,-1.35,-1.3448,-1.3447,-1.3458,-1.3425,-1.3427,-1.339,-1.3433,-1.3433,-1.3432,0,-1.3859,-1.3831,-1.3782,-1.3745,-1.3732,-1.3707,-1.3669,-1.3641,-1.3605,-1.3591,-1.3563,-1.3548,-1.3508,-1.3516,-1.3459,-1.3478,-1.3455,-1.3437,-1.3435,-1.3428,-1.3437,-1.3415,-1.3378,-1.3372,-1.3423,-1.3424,-1.3424,0,-1.3848,-1.3796,-1.376,-1.3745,-1.3701,-1.3683,-1.3663,-1.3629,-1.3607,-1.3572,-1.3556,-1.3516,-1.3493,-1.3461,-1.3433,-1.3441,-1.3377,-1.3383,-1.3361,-1.3362,-1.3347,-1.3348,-1.3305,-1.3336,-1.3336,-1.3336,-1.3336,0,-1.3816,-1.3785,-1.3755,-1.3732,-1.3697,-1.3675,-1.3639,-1.3618,-1.3587,-1.3557,-1.3541,-1.3512,-1.3478,-1.3443,-1.3421,-1.3376,-1.3366,-1.335,-1.3344,-1.3351,-1.3353,-1.3334,-1.3335,-1.3334,-1.3335,-1.3335,-1.3335,0,-1.3796,-1.3775,-1.3734,-1.3697,-1.3687,-1.3662,-1.3628,-1.3603,-1.3582,-1.3544,-1.3534,-1.3498,-1.3457,-1.3427,-1.3372,-1.3356,-1.3307,-1.3302,-1.332,-1.3317,-1.3296,-1.3298,-1.3238,-1.3228,-1.3268,-1.3267,-1.3267,0,-1.3777,-1.3754,-1.3715,-1.3696,-1.3677,-1.3646,-1.3623,-1.36,-1.3576,-1.3533,-1.3513,-1.3471,-1.3436,-1.3369,-1.3336,-1.3293,-1.3285,-1.3267,-1.3278,-1.3285,-1.3282,-1.3283,-1.3279,-1.3265,-1.3265,-1.3265,-1.3264,0,-1.3743,-1.3734,-1.3705,-1.3671,-1.3645,-1.3617,-1.3587,-1.3571,-1.3541,-1.3515,-1.3474,-1.3448,-1.3393,-1.335,-1.3304,-1.3278,-1.3264,-1.3262,-1.3254,-1.3259,-1.327,-1.3262,-1.3314,-1.3262,-1.3263,-1.3263,-1.3263,-1.3263,-1.3722,-1.37,-1.367,-1.3636,-1.3613,-1.3585,-1.356,-1.3537,-1.3504,-1.3461,-1.3447,-1.3404,-1.3366,-1.3303,-1.3277,-1.324,-1.324,-1.3229,-1.3226,-1.3224,-1.3223,-1.3278,-1.3231,-1.3231,-1.3231,-1.3231,-1.3231,0,-1.3686,-1.3666,-1.3636,-1.3597,-1.357,-1.3565,-1.3531,-1.3507,-1.3471,-1.3439,-1.3406,-1.3357,-1.3315,-1.3279,-1.3234,-1.3211,-1.3203,-1.32,-1.32,-1.3194,-1.3226,-1.3237,-1.3207,-1.3207,-1.3207,-1.3207,-1.3207,-1.3207,-1.3664,-1.3627,-1.3614,-1.3563,-1.3541,-1.3503,-1.3484,-1.3457,-1.3431,-1.3379,-1.3346,-1.3324,-1.3288,-1.3241,-1.32,-1.319,-1.3173,-1.317,-1.3158,-1.3189,-1.3192,-1.3194,-1.3204,-1.3168,-1.3167,-1.3129,-1.3128,-1.3128]}]]